HUBBLE
1 20580U 90037B 08191.36137517 .00000236 00000-0 53950-5 0 01851
2 20580 028.4681 178.5942 0003626 255.4161 104.6027 15.00391268798316
PO-34
1 25520U 98064B 08192.81139306 .00000213 00000-0 73562-6 0 336
2 25520 028.4593 020.6210 0005600 184.5516 175.5039 15.17207520536755
ISS
1 25544U 98067A 08191.93326389 .00007500 00000-0 53463-4 0 08257
2 25544 051.6412 259.4045 0009157 354.0894 013.8871 15.75003968552111
CO-58
1 28895U 05043F 08191.74156351 .00000105 00000-0 31744-4 0 658
2 28895 098.0977 085.2116 0017545 343.1644 016.8999 14.59681762143777
NCUBE2
1 28897U 05043H 08191.70345455 .00000074 00000-0 25116-4 0 05972
2 28897 098.0946 085.1036 0017211 344.3373 015.7295 14.59852947136052
FCAL
1 29667U 06055J 08146.34060426 .11864717 12752-4 73624-4 0 9790
2 29667 051.6107 065.3702 0009039 260.8350 099.5042 16.53464210 82911
FALCON
1 30776U 07006E 08191.89388850 .00000137 00000-0 13044-4 0 3502
2 30776 035.4342 015.7796 0001392 262.1795 097.8763 15.03015853 73560
MAST
1 31126U 07012K 08191.82175380 .00000026 00000-0 16822-4 0 03722
2 31126 098.0379 255.3525 0093438 261.6000 097.4594 14.53432803065305
CAPE1
1 31130U 07012P 08192.89783538 .00000056 00000-0 24236-4 0 3502
2 31130 098.0382 255.3392 0101350 261.5527 097.4185 14.51975090 65160
CUTE1-7
1 32785U 08021C 08192.76060503 -.00000014 00000-0 51249-5 0 996
2 32785 097.9920 252.6221 0016083 060.4434 299.8380 14.81374619 10893
COMPASS
1 32787U 08021E 08191.47473730 .00000326 00000-0 48441-4 0 00900
2 32787 097.9885 251.3057 0017133 066.7716 293.5302 14.81431917010707
AAUSAT2
1 32788U 08021F 08191.94223214 .00000356 00000-0 52096-4 0 00930
2 32788 097.9882 251.7816 0017185 068.6965 291.6061 14.81541325010779
DO-64
1 32789U 08021G 08192.82653122 .00000215 00000-0 34255-4 0 980
2 32789 097.9917 252.6784 0016969 062.8150 297.4782 14.81425241 10901
SEEDS
1 32791U 08021J 08191.34644650 .00000344 00000-0 50956-4 0 00894
2 32791 097.9917 251.1892 0017453 065.8698 294.4347 14.81290055010656
CANX-2
1 32797U 08021L 08191.12513628 .00001593 00000-0 20789-3 0 00422
2 32797 097.9928 251.0314 0018832 071.3703 288.9466 14.81819372009335
RS-30
1 32953U 08025A 08192.59097477 .00000010 00000-0 00000 0 0 525
2 32953 082.5026 109.0384 0017778 201.6239 158.4089 12.42996762 5957
